TimeMDT,TemperatureF,Dew PointF,Humidity,Sea Level PressureIn,VisibilityMPH,Wind Direction,Wind SpeedMPH,Gust SpeedMPH,PrecipitationIn,Events,Conditions,WindDirDegrees,DateUTC
12:53 AM,42.1,35.1,76,30.01,10.0,ESE,3.5,-,N/A,,Clear,110,2013-05-09 06:53:00
1:53 AM,41.0,36.0,82,29.98,10.0,Calm,Calm,-,N/A,,Clear,0,2013-05-09 07:53:00
2:53 AM,39.9,35.1,83,29.99,10.0,Calm,Calm,-,N/A,,Scattered Clouds,0,2013-05-09 08:53:00
3:53 AM,41.0,35.1,79,29.96,10.0,Calm,Calm,-,N/A,,Overcast,0,2013-05-09 09:53:00
4:53 AM,41.0,34.0,76,29.98,10.0,East,3.5,-,N/A,,Overcast,90,2013-05-09 10:53:00
5:53 AM,41.0,36.0,82,29.98,10.0,Calm,Calm,-,N/A,,Overcast,0,2013-05-09 11:53:00
6:53 AM,43.0,36.0,76,29.98,10.0,Calm,Calm,-,N/A,,Overcast,0,2013-05-09 12:53:00
7:53 AM,44.1,37.0,76,30.01,10.0,Calm,Calm,-,N/A,,Overcast,0,2013-05-09 13:53:00
8:53 AM,46.9,37.0,68,30.02,10.0,Calm,Calm,-,0.00,,Overcast,0,2013-05-09 14:53:00
9:53 AM,50.0,37.9,63,30.03,10.0,Calm,Calm,-,0.00,,Overcast,0,2013-05-09 15:53:00
11:53 AM,48.9,41.0,74,30.06,10.0,SSW,3.5,-,0.03,Rain,Light Rain,200,2013-05-09 17:53:00
12:53 PM,51.1,41.0,68,30.06,10.0,Variable,3.5,-,0.00,,Overcast,0,2013-05-09 18:53:00
1:08 PM,48.2,41.0,76,30.15,3.0,WSW,5.8,-,0.03,Rain,Rain,240,2013-05-09 19:08:00
1:21 PM,48.2,41.0,76,30.15,10.0,SSW,5.8,-,0.04,Rain,Light Rain,210,2013-05-09 19:21:00
1:53 PM,52.0,44.1,74,30.05,10.0,South,4.6,-,0.05,,Overcast,190,2013-05-09 19:53:00
2:53 PM,55.9,41.0,57,30.03,10.0,Variable,4.6,-,N/A,,Clear,0,2013-05-09 20:53:00
3:53 PM,57.9,37.9,47,30.00,10.0,Variable,3.5,-,N/A,,Clear,0,2013-05-09 21:53:00
4:53 PM,52.0,39.9,63,30.03,10.0,NNE,16.1,24.2,0.00,Rain,Light Rain,20,2013-05-09 22:53:00
6:53 PM,53.1,39.9,61,30.02,10.0,ENE,10.4,-,N/A,,Clear,60,2013-05-10 00:53:00
7:53 PM,53.1,37.9,57,30.01,10.0,NE,8.1,-,N/A,,Clear,50,2013-05-10 01:53:00
8:53 PM,48.9,37.9,66,30.04,10.0,NNE,6.9,-,N/A,,Clear,30,2013-05-10 02:53:00
9:53 PM,45.0,39.0,80,30.08,10.0,Calm,Calm,-,N/A,,Clear,0,2013-05-10 03:53:00
11:53 PM,39.9,36.0,86,30.12,10.0,NE,5.8,-,N/A,,Clear,50,2013-05-10 05:53:00